| time (UTC) | temp C | wind direction | speed KPH | gust KPH | rain 1hr cm | rain 24hr cm | rain mn cm | humidity % | barometer mb |
| 20260502163316 | 21 | 110 | 4.8 | 12.9 | 0.00 | 0.00 | 0.00 | 55 | 1015.5 |
| 20260502162816 | 21 | 86 | 3.2 | 11.3 | 0.00 | 0.00 | 0.00 | 53 | 1015.6 |
| 20260502161310 | 22 | 114 | 4.8 | 22.5 | 0.00 | 0.00 | 0.00 | 53 | 1015.6 |
| 20260502160309 | 22 | 88 | 6.4 | 17.7 | 0.00 | 0.00 | 0.00 | 51 | 1015.6 |
| 20260502152310 | 23 | 184 | 6.4 | 22.5 | 0.00 | 0.00 | 0.00 | 47 | 1016.2 |
| 20260502151310 | 23 | 94 | 4.8 | 12.9 | 0.00 | 0.00 | 0.00 | 46 | 1016.2 |
| 20260502150309 | 23 | 202 | 6.4 | 19.3 | 0.00 | 0.00 | 0.00 | 47 | 1016.5 |
| 20260502130306 | 23 | 184 | 8.0 | 22.5 | 0.00 | 0.00 | 0.00 | 49 | 1017.8 |
| 20260502123306 | 23 | 148 | 8.0 | 22.5 | 0.00 | 0.00 | 0.00 | 48 | 1018.0 |
| 20260502122306 | 23 | 83 | 6.4 | 19.3 | 0.00 | 0.00 | 0.00 | 50 | 1018.5 |
| 20260502121306 | 23 | 118 | 6.4 | 17.7 | 0.00 | 0.00 | 0.00 | 48 | 1018.6 |
| 20260502120308 | 23 | 84 | 8.0 | 22.5 | 0.00 | 0.00 | 0.00 | 49 | 1018.7 |
| 20260502120301 | 23 | 126 | 6.4 | 17.7 | 0.00 | 0.00 | 0.00 | 49 | 1018.8 |
| 20260502114300 | 23 | 131 | 6.4 | 16.1 | 0.00 | 0.00 | 0.00 | 46 | 1018.9 |
| 20260502113259 | 22 | 82 | 6.4 | 16.1 | 0.00 | 0.00 | 0.00 | 49 | 1018.9 |
| 20260502112800 | 22 | 188 | 4.8 | 14.5 | 0.00 | 0.00 | 0.00 | 50 | 1019.2 |
| 20260502111801 | 22 | 101 | 8.0 | 19.3 | 0.00 | 0.00 | 0.00 | 48 | 1019.3 |
| 20260502110300 | 22 | 67 | 3.2 | 12.9 | 0.00 | 0.00 | 0.00 | 51 | 1019.4 |
| 20260502105306 | 22 | 129 | 4.8 | 17.7 | 0.00 | 0.00 | 0.00 | 45 | 1019.6 |
| 20260502105300 | 22 | 137 | 4.8 | 12.9 | 0.00 | 0.00 | 0.00 | 49 | 1019.4 |
| 20260502103301 | 22 | 117 | 4.8 | 12.9 | 0.00 | 0.00 | 0.00 | 49 | 1019.6 |
| 20260502102758 | 22 | 82 | 9.7 | 19.3 | 0.00 | 0.00 | 0.00 | 48 | 1019.6 |
| 20260502101258 | 22 | 59 | 4.8 | 17.7 | 0.00 | 0.00 | 0.00 | 47 | 1019.7 |
| 20260502100255 | 22 | 93 | 4.8 | 11.3 | 0.00 | 0.00 | 0.00 | 45 | 1019.8 |
| 20260502091256 | 20 | 76 | 6.4 | 16.1 | 0.00 | 0.00 | 0.00 | 49 | 1020.3 |
| 20260502090255 | 19 | 109 | 8.0 | 17.7 | 0.00 | 0.00 | 0.00 | 53 | 1020.3 |
| 20260502070249 | 16 | 104 | 4.8 | 11.3 | 0.00 | 0.00 | 0.00 | 53 | 1020.8 |
| 20260502065250 | 16 | 98 | 9.7 | 16.1 | 0.00 | 0.00 | 0.00 | 53 | 1020.9 |
| 20260502064247 | 16 | 80 | 11.3 | 20.9 | 0.00 | 0.00 | 0.00 | 55 | 1020.8 |
| 20260502063248 | 15 | 70 | 11.3 | 19.3 | 0.00 | 0.00 | 0.00 | 54 | 1020.7 |
| 20260502062248 | 15 | 72 | 9.7 | 16.1 | 0.00 | 0.00 | 0.00 | 55 | 1020.9 |
| 20260502061248 | 15 | 74 | 9.7 | 16.1 | 0.00 | 0.00 | 0.00 | 54 | 1020.9 |
| 20260502060247 | 15 | 82 | 4.8 | 11.3 | 0.00 | 0.00 | 0.00 | 55 | 1021.0 |
| 20260502055248 | 15 | 78 | 4.8 | 12.9 | 0.00 | 0.00 | 0.00 | 55 | 1021.0 |
| 20260502054247 | 14 | 92 | 6.4 | 12.9 | 0.00 | 0.00 | 0.00 | 54 | 1020.9 |
| 20260502053248 | 14 | 86 | 6.4 | 14.5 | 0.00 | 0.00 | 0.00 | 56 | 1020.9 |
| 20260502052247 | 13 | 71 | 6.4 | 14.5 | 0.00 | 0.00 | 0.00 | 59 | 1020.9 |
| 20260502051247 | 12 | 85 | 8.0 | 16.1 | 0.00 | 0.00 | 0.00 | 60 | 1020.8 |
| 20260502050247 | 12 | 80 | 6.4 | 19.3 | 0.00 | 0.00 | 0.00 | 62 | 1020.6 |
| 20260502045247 | 12 | 101 | 9.7 | 16.1 | 0.00 | 0.00 | 0.00 | 63 | 1020.7 |
| 20260502044248 | 11 | 85 | 9.7 | 16.1 | 0.00 | 0.00 | 0.00 | 62 | 1020.7 |
| 20260502043748 | 11 | 94 | 9.7 | 19.3 | 0.00 | 0.00 | 0.00 | 61 | 1020.6 |
| 20260502042247 | 11 | 66 | 9.7 | 19.3 | 0.00 | 0.00 | 0.00 | 60 | 1020.7 |
| 20260502041247 | 11 | 109 | 11.3 | 19.3 | 0.00 | 0.00 | 0.00 | 61 | 1020.7 |
| 20260502040748 | 11 | 57 | 12.9 | 24.1 | 0.00 | 0.00 | 0.00 | 63 | 1020.7 |
| 20260502035247 | 11 | 79 | 8.0 | 16.1 | 0.00 | 0.00 | 0.00 | 62 | 1020.8 |
| 20260502034247 | 11 | 86 | 4.8 | 14.5 | 0.00 | 0.00 | 0.00 | 62 | 1020.9 |
| 20260502033749 | 11 | 120 | 4.8 | 14.5 | 0.00 | 0.00 | 0.00 | 62 | 1020.9 |
| 20260502032248 | 11 | 86 | 3.2 | 9.7 | 0.00 | 0.00 | 0.00 | 62 | 1021.0 |
| 20260502031247 | 11 | 82 | 3.2 | 6.4 | 0.00 | 0.00 | 0.00 | 62 | 1020.9 |
| 20260502030247 | 11 | 90 | 1.6 | 6.4 | 0.00 | 0.00 | 0.00 | 62 | 1021.0 |
| 20260502025747 | 11 | 85 | 0.0 | 3.2 | 0.00 | 0.00 | 0.00 | 63 | 1021.0 |
| 20260502024251 | 10 | 57 | 0.0 | 0.0 | 0.00 | 0.00 | 0.00 | 65 | 1021.1 |
| 20260502024247 | 10 | 105 | 0.0 | 4.8 | 0.00 | 0.00 | 0.00 | 64 | 1021.1 |
| 20260502022748 | 10 | 55 | 0.0 | 4.8 | 0.00 | 0.00 | 0.00 | 65 | 1021.1 |
| 20260502021247 | 10 | 76 | 0.0 | 6.4 | 0.00 | 0.00 | 0.00 | 65 | 1021.0 |
| 20260502020247 | 10 | 92 | 0.0 | 4.8 | 0.00 | 0.00 | 0.00 | 66 | 1021.0 |
| 20260502015245 | 10 | 38 | 0.0 | 4.8 | 0.00 | 0.00 | 0.00 | 67 | 1021.1 |
| 20260502014245 | 10 | 49 | 0.0 | 3.2 | 0.00 | 0.00 | 0.00 | 68 | 1021.1 |
| 20260502013245 | 9 | 49 | 1.6 | 4.8 | 0.00 | 0.00 | 0.00 | 68 | 1021.2 |
| 20260502012745 | 9 | 49 | 1.6 | 4.8 | 0.00 | 0.00 | 0.00 | 69 | 1021.3 |
| 20260502011246 | 9 | 50 | 1.6 | 4.8 | 0.00 | 0.00 | 0.00 | 69 | 1021.3 |
| 20260502010244 | 9 | 55 | 1.6 | 6.4 | 0.00 | 0.00 | 0.00 | 69 | 1021.4 |
| 20260502005247 | 9 | 83 | 0.0 | 3.2 | 0.00 | 0.00 | 0.00 | 70 | 1021.8 |
| 20260502005243 | 9 | 80 | 0.0 | 1.6 | 0.00 | 0.00 | 0.00 | 69 | 1021.7 |
| 20260502003243 | 9 | 84 | 1.6 | 4.8 | 0.00 | 0.00 | 0.00 | 69 | 1021.8 |
| 20260502002243 | 9 | 83 | 1.6 | 4.8 | 0.00 | 0.00 | 0.00 | 68 | 1021.9 |
| 20260502001241 | 9 | 79 | 3.2 | 4.8 | 0.00 | 0.00 | 0.00 | 68 | 1022.0 |
| 20260502000241 | 10 | 80 | 1.6 | 3.2 | 0.00 | 0.00 | 0.00 | 68 | 1022.1 |
| 20260501235743 | 10 | 80 | 3.2 | 4.8 | 0.00 | 0.00 | 0.00 | 67 | 1022.1 |
| 20260501234241 | 10 | 86 | 1.6 | 3.2 | 0.00 | 0.00 | 0.00 | 67 | 1022.3 |
| 20260501233241 | 10 | 86 | 1.6 | 3.2 | 0.00 | 0.00 | 0.00 | 67 | 1022.3 |
| 20260501232240 | 10 | 86 | 1.6 | 3.2 | 0.00 | 0.00 | 0.00 | 66 | 1022.3 |
| 20260501231235 | 10 | 85 | 1.6 | 3.2 | 0.00 | 0.00 | 0.00 | 65 | 1022.2 |
| 20260501230240 | 10 | 85 | 1.6 | 4.8 | 0.00 | 0.00 | 0.00 | 65 | 1022.3 |
| 20260501225239 | 10 | 85 | 3.2 | 4.8 | 0.00 | 0.00 | 0.00 | 64 | 1022.5 |
| 20260501224245 | 11 | 95 | 1.6 | 3.2 | 0.00 | 0.00 | 0.00 | 63 | 1022.5 |
| 20260501224241 | 11 | 96 | 1.6 | 3.2 | 0.00 | 0.00 | 0.00 | 63 | 1022.5 |
| 20260501222237 | 11 | 95 | 4.8 | 9.7 | 0.00 | 0.00 | 0.00 | 62 | 1022.5 |
| 20260501221238 | 11 | 90 | 4.8 | 9.7 | 0.00 | 0.00 | 0.00 | 60 | 1022.5 |
| 20260501220237 | 12 | 93 | 4.8 | 6.4 | 0.00 | 0.00 | 0.00 | 59 | 1022.6 |
| 20260501215236 | 12 | 78 | 4.8 | 4.8 | 0.00 | 0.00 | 0.00 | 58 | 1022.6 |
| 20260501214237 | 12 | 81 | 4.8 | 6.4 | 0.00 | 0.00 | 0.00 | 56 | 1022.6 |
| 20260501213237 | 12 | 82 | 3.2 | 4.8 | 0.00 | 0.00 | 0.00 | 55 | 1022.8 |
| 20260501212232 | 12 | 86 | 3.2 | 4.8 | 0.00 | 0.00 | 0.00 | 55 | 1022.7 |
| 20260501211236 | 12 | 86 | 3.2 | 4.8 | 0.00 | 0.00 | 0.00 | 55 | 1022.7 |
| 20260501210238 | 13 | 87 | 3.2 | 6.4 | 0.00 | 0.00 | 0.00 | 54 | 1022.8 |
| 20260501205240 | 13 | 86 | 4.8 | 6.4 | 0.00 | 0.00 | 0.00 | 52 | 1022.6 |
| 20260501205236 | 13 | 86 | 3.2 | 4.8 | 0.00 | 0.00 | 0.00 | 54 | 1022.6 |
| 20260501203236 | 13 | 86 | 4.8 | 6.4 | 0.00 | 0.00 | 0.00 | 52 | 1022.7 |
| 20260501202237 | 13 | 85 | 4.8 | 6.4 | 0.00 | 0.00 | 0.00 | 52 | 1022.9 |
| 20260501201233 | 13 | 84 | 4.8 | 6.4 | 0.00 | 0.00 | 0.00 | 51 | 1022.8 |
| 20260501200233 | 13 | 82 | 4.8 | 9.7 | 0.00 | 0.00 | 0.00 | 52 | 1022.9 |
| 20260501195238 | 14 | 78 | 6.4 | 8.0 | 0.00 | 0.00 | 0.00 | 50 | 1022.8 |
| 20260501194238 | 14 | 82 | 4.8 | 6.4 | 0.00 | 0.00 | 0.00 | 50 | 1022.9 |
| 20260501193238 | 14 | 80 | 4.8 | 6.4 | 0.00 | 0.00 | 0.00 | 49 | 1022.8 |
| 20260501192236 | 15 | 88 | 4.8 | 6.4 | 0.00 | 0.00 | 0.00 | 49 | 1022.9 |
| 20260501191733 | 15 | 81 | 3.2 | 6.4 | 0.00 | 0.00 | 0.00 | 48 | 1022.8 |
| 20260501190242 | 15 | 84 | 3.2 | 4.8 | 0.00 | 0.00 | 0.00 | 46 | 1022.8 |
| 20260501185232 | 15 | 81 | 4.8 | 9.7 | 0.00 | 0.00 | 0.00 | 46 | 1022.8 |
| 20260501184231 | 16 | 80 | 6.4 | 9.7 | 0.00 | 0.00 | 0.00 | 45 | 1022.8 |
| 20260501183743 | 16 | 90 | 6.4 | 12.9 | 0.00 | 0.00 | 0.00 | 45 | 1022.8 |
| 20260501182231 | 16 | 78 | 6.4 | 12.9 | 0.00 | 0.00 | 0.00 | 43 | 1022.9 |
| 20260501181231 | 17 | 94 | 9.7 | 19.3 | 0.00 | 0.00 | 0.00 | 42 | 1022.7 |
| 20260501180232 | 17 | 88 | 9.7 | 19.3 | 0.00 | 0.00 | 0.00 | 42 | 1022.8 |
| 20260501175232 | 17 | 74 | 9.7 | 17.7 | 0.00 | 0.00 | 0.00 | 39 | 1022.6 |
| 20260501174232 | 18 | 106 | 9.7 | 20.9 | 0.00 | 0.00 | 0.00 | 40 | 1022.8 |
| 20260501173232 | 18 | 82 | 14.5 | 24.1 | 0.00 | 0.00 | 0.00 | 37 | 1022.6 |
| 20260501172231 | 18 | 110 | 12.9 | 20.9 | 0.00 | 0.00 | 0.00 | 38 | 1022.7 |
| 20260501171232 | 18 | 82 | 16.1 | 24.1 | 0.00 | 0.00 | 0.00 | 37 | 1022.8 |
| 20260501170237 | 19 | 61 | 14.5 | 22.5 | 0.00 | 0.00 | 0.00 | 36 | 1022.9 |
| 20260501170232 | 18 | 76 | 12.9 | 24.1 | 0.00 | 0.00 | 0.00 | 36 | 1022.8 |
| 20260501164737 | 19 | 78 | 16.1 | 25.7 | 0.00 | 0.00 | 0.00 | 35 | 1022.9 |